Weather History for KHOT - October, 2012

Change the Weather History Date:

Saturday, October 13, 2012

  Actual Average Record
Temperature  
Mean Temperature 70 °F -  
Max Temperature 78 °F 78 °F 96 °F (1963)
Min Temperature 62 °F 52 °F 36 °F (1977)
Cooling Degree Days 5    
Growing Degree Days 20 (Base 50)    
Moisture  
Dew Point 64 °F    
Average Humidity 86    
Maximum Humidity 100    
Minimum Humidity 64    
Precipitation  
Precipitation 0.00 in - - ()
Sea Level Pressure  
Sea Level Pressure 30.09 in    
Wind  
Wind Speed 6 mph (SE)    
Max Wind Speed 13 mph    
Max Gust Speed 21 mph    
Visibility 5 miles    
Events Fog    
Averages and records for this station are not official NWS values.
T = Trace of Precipitation, MM = Missing Value Source: NWS Daily Summary

Daily Weather History Graph

Daily Weather History Graph

Search for Another Location

Airport or City:

Trip Planner

Search our weather history database for the weather conditions in past years. The results will help you decide how hot, cold, wet, or windy it might be!

Date:

Astronomy

Oct. 13, 2012 Rise Set
Actual Time 7:16 AM CDT 6:39 PM CDT
Civil Twilight 6:51 AM CDT 7:05 PM CDT
Nautical Twilight 6:22 AM CDT 7:34 PM CDT
Astronomical Twilight 5:53 AM CDT 8:03 PM CDT
Moon 5:11 AM CDT (10/13) 5:21 PM CDT (10/13)
Length of Visible Light 12h 13m
Length of Day
11h 23m
Waning Crescent, 5% of the Moon is Illuminated
Oct 13
Waning Crescent
Oct 15
New
Oct 21
First Quarter
Oct 29
Full
Nov 6
Last Quarter

Hourly Weather History & Observations

Time (CDT) Temp. Dew Point Humidity Pressure Visibility Wind Dir Wind Speed Gust Speed Precip Events Conditions
12:06 AM 64.4 °F 62.6 °F 94% 30.17 in 3.0 mi East 4.6 mph - N/A   Partly Cloudy
12:22 AM 64.4 °F 62.6 °F 94% 30.17 in 2.5 mi ESE 3.5 mph - N/A   Mostly Cloudy
12:49 AM 64.4 °F 62.6 °F 94% 30.17 in 1.0 mi East 6.9 mph - N/A   Overcast
12:53 AM 64.0 °F 63.0 °F 96% 30.16 in 0.8 mi East 4.6 mph - N/A   Mist
1:53 AM 64.0 °F 63.0 °F 96% 30.15 in 0.5 mi ESE 6.9 mph - N/A Fog Fog
2:29 AM 64.4 °F 62.6 °F 94% 30.15 in 0.2 mi East 5.8 mph - N/A Fog Fog
2:53 AM 64.0 °F 63.0 °F 96% 30.13 in 0.5 mi East 5.8 mph - N/A Fog Fog
3:53 AM 63.0 °F 63.0 °F 100% 30.12 in 0.8 mi East 8.1 mph - N/A   Mist
4:53 AM 63.0 °F 62.1 °F 97% 30.13 in 0.5 mi East 5.8 mph - N/A Fog Fog
5:53 AM 62.1 °F 61.0 °F 96% 30.14 in 0.5 mi East 5.8 mph - N/A Fog Fog
6:35 AM 62.6 °F 60.8 °F 94% 30.16 in 0.2 mi East 5.8 mph - N/A Fog Fog
6:53 AM 62.1 °F 61.0 °F 96% 30.15 in 0.2 mi East 5.8 mph - N/A Fog Fog
7:16 AM 62.6 °F 60.8 °F 94% 30.16 in 0.5 mi East 6.9 mph - N/A Fog Fog
7:53 AM 62.1 °F 61.0 °F 96% 30.15 in 0.5 mi ESE 6.9 mph - N/A Fog Fog
8:09 AM 62.6 °F 60.8 °F 94% 30.16 in 1.0 mi SE 5.8 mph - N/A   Overcast
8:53 AM 63.0 °F 62.1 °F 97% 30.15 in 1.5 mi ENE 6.9 mph - N/A   Overcast
9:23 AM 62.6 °F 62.6 °F 100% 30.16 in 2.0 mi East 4.6 mph - N/A   Overcast
9:53 AM 64.9 °F 64.0 °F 97% 30.14 in 2.5 mi Variable 3.5 mph - N/A   Overcast
10:02 AM 66.2 °F 64.4 °F 94% 30.15 in 3.0 mi South 6.9 mph - N/A   Overcast
10:24 AM 68.0 °F 66.2 °F 94% 30.15 in 4.0 mi Variable 4.6 mph - N/A   Mostly Cloudy
10:46 AM 69.8 °F 64.4 °F 83% 30.15 in 5.0 mi SSW 9.2 mph - N/A   Overcast
10:53 AM 70.0 °F 64.9 °F 84% 30.13 in 5.0 mi SSW 8.1 mph - N/A   Haze
11:53 AM 73.9 °F 66.0 °F 76% 30.10 in 8.0 mi SSW 12.7 mph 19.6 mph N/A   Mostly Cloudy
12:12 PM 73.4 °F 66.2 °F 78% 30.10 in 9.0 mi SSW 10.4 mph - N/A   Scattered Clouds
12:41 PM 73.4 °F 66.2 °F 78% 30.09 in 10.0 mi South 11.5 mph - N/A   Mostly Cloudy
12:53 PM 75.2 °F 66.2 °F 73% 30.08 in 10.0 mi SSW 8.1 mph - N/A   Mostly Cloudy
1:53 PM 75.9 °F 66.0 °F 71% 30.02 in 10.0 mi SSW 8.1 mph - N/A   Overcast
2:53 PM 75.9 °F 66.0 °F 71% 29.99 in 10.0 mi South 8.1 mph - N/A   Overcast
3:53 PM 78.1 °F 64.9 °F 64% 29.97 in 10.0 mi South 8.1 mph - N/A   Mostly Cloudy
4:53 PM 78.1 °F 64.9 °F 64% 29.96 in 10.0 mi Variable 4.6 mph - N/A   Scattered Clouds
5:53 PM 77.0 °F 66.0 °F 69% 29.95 in 10.0 mi SSE 6.9 mph - N/A   Overcast
7:53 PM 73.9 °F 66.0 °F 76% 29.92 in 10.0 mi SSE 6.9 mph - N/A   Partly Cloudy
8:53 PM 75.0 °F 66.0 °F 73% 29.92 in 10.0 mi SSE 10.4 mph - N/A   Mostly Cloudy
9:53 PM 75.0 °F 66.0 °F 73% 29.91 in 10.0 mi SSE 11.5 mph 20.7 mph N/A   Overcast
10:53 PM 73.9 °F 66.0 °F 76% 29.90 in 10.0 mi SSW 10.4 mph 17.3 mph 0.00 in   Overcast
11:53 PM 75.0 °F 64.0 °F 69% 29.88 in 10.0 mi SSW 10.4 mph 19.6 mph N/A   Overcast